Погода в Гулистане

Узбекистан     40°27′29″N   68°46′51″E
темп.,
°C
ветер,
м/с
пор.,
м/с
влажн.,
%
обл.,
%
осадки,
мм/ч
давл.,
гПа
погр.,
м
20 июня, вс
вс2023:00+26ссз511250 0.0 1007235
02:00+22з46370 0.0 100898
05:00+19з34270 0.0 101055
08:00+23з34235 0.0 1011476
11:00+28зсз44209 0.0 10101081
14:00+33сз55150 0.0 10081974
17:00+33зсз55140 0.0 10062346
20:00+26з59230 0.0 1008122
21 июня, пн
пн2123:00+22сз46240 0.0 100971
02:00+18з45270 0.0 101064
05:00+16зюз34300 0.0 101152
08:00+22з34220 0.0 1012448
11:00+28зсз44170 0.0 10121067
14:00+33зсз44120 0.0 10101650
17:00+34зсз34100 0.0 10092125
20:00+26з45240 0.0 100958
22 июня, вт
вт2223:00+23сз22310 0.0 101011
02:00+21юз22340 0.0 101013
05:00+20зюз22363 0.0 101011
08:00+27з22280 0.0 1011306
11:00+33сз43230 0.0 10101840
14:00+36сз44190 0.0 10082906
17:00+35ссз65180 0.0 10082628
20:00+27сз511200 0.0 1009155
23 июня, ср
ср2323:00+23ссз36230 0.0 101096
02:00+20з34280 0.0 101041
05:00+17з34350 0.0 101151
08:00+23з34280 0.0 1012425
11:00+30зсз44200 0.0 10111024
14:00+34сз44130 0.0 10091664
17:00+35зсз44120 0.0 10081966
20:00+28зюз33170 0.0 100919
24 июня, чт
чт2423:00+23сз47230 0.0 100993
02:00+20зюз45280 0.0 101062
05:00+18з34320 0.0 101044
08:00+25з34250 0.0 1011379
11:00+32зсз44170 0.0 10091082
14:00+36ссз33120 0.0 10071989
17:00+37сз24100 0.0 10052641
20:00+29з46250 0.0 100561